{"data":{"norad_id":52105,"intl_designator":"2022-029T","name":"STARLINK-3706","alt_names":[],"object_type":"PAYLOAD","status":"ACTIVE","operator":null,"country":"US","launch_date":"2022-03-19","launch_site_code":"AFETR","launch_vehicle":null,"mission":null,"orbit_class":"UNKNOWN","rcs_meters":null,"size_class":null,"mass_kg":null,"dimensions":null,"purposes":["comms"],"wikipedia_slug":null,"has_3d_model":false,"image_url":null,"decayed_at":null,"tle_current":{"epoch":"2026-09-19T17:51:03.456000Z","epoch_age_seconds":121489,"freshness":"FRESH","line1":"1 52105U 22029T   26262.74379000  .00000243  00000+0  18325-4 0  9997","line2":"2 52105  53.1593 272.9049 0001310  87.9898 272.1255 15.34388257250285","mean_motion":15.34388257,"eccentricity":0.000131,"inclination_deg":53.1593,"raan_deg":272.9049,"arg_perigee_deg":87.9898,"mean_anomaly_deg":272.1255,"bstar":1.8325e-5,"rev_number":25028,"period_min":93.848476318207,"perigee_km":461.84198845668,"apogee_km":463.63429774417,"semimajor_km":6840.8751431004,"source":"CELESTRAK","updated_at":"2026-09-20T09:00:39.986537Z"}}}